Showing default

TELSTAR 19V, 43562

Orbit data source: Space-Track

TELSTAR 19V, 43562 is a payload satellite owned by Telesat/Skynet (CA) in GEO that was launched on Sun, 22 Jul 2018 UTC via an FALCON 9 launch vehicle from the Air Force Eastern Test Range (AFETR). Payload-class satellites include a variety of spacecraft equipped with specific instruments for various scientific and technological missions. These include communications satellites like Starlink; space stations such as the ISS; scientific satellites like the Hubble; Earth observation satellites from companies like Planet Labs, Umbra, and HawkEye 360; GPS; miniature CubeSats for education and research; and military/defense satellites.

Loading next visibility...
Identifier
43562, 2018-059A
Orbit
GEO
Country
Flag of CACA
Related business
Manufacturer
Maxar SSL
Mission
Operational Commercial Communications
Bus & Motor
LS-1300, R-4D
Mass
7,075 kg wet, ~2,000 kg dry
Launch date (UTC)
2018-07-22 (7 years ago)
Launch vehicle
FALCON 9
Launch site
Air Force Eastern Test Range (AFETR)
Object type
Payload
Rocket body
Debris
Shape & HBR
Box + 2 Pan, 13.1 m
Radar Cross Section
120.644 m², Large (>1 m²)

Expand to show TLE details & history
Last TLE update: 1 day ago

TLE from 1 day ago
0 TELSTAR 19V
1 43562U 18059A   25294.89496972 -.00000272  00000-0  00000+0 0  9990
2 43562   0.0206 210.3903 0002718 318.8934 120.5056  1.00271099 26750
Epoch: 2025-10-21T21:28Z
TLE epoch observation values (Epoch: 2025-10-21T21:28:45.383Z)
Latitude
0.04221°
Longitude
-62.98057°
Altitude
35,792.038 km
Speed
3.074 km/s
True Right ascension
19h 19m 08s
True Declination
0° 02' 32"
Sunlit
Object was in daylight at epoch
Visualization orbit readout
Latitude
Unknown
Longitude
Unknown
Altitude
Unknown
Speed
Unknown
Apparent Right ascension
Unknown
Apparent Declination
Unknown
Sunlit
N/A
Visualization observer readout
Local Sidereal Time
18:27:19
Azimuth
Unknown
Elevation
Unknown
Doppler factor
Unknown
Orbital elements
Apogee altitude
35,799.318 km
Perigee altitude
35,776.397 km
Semi-major axis
42,165.995 km
Eccentricity
0.00027
Inclination
0.0206°
RAAN
210.3903°
Arg. of periapsis
318.8934°
True anomaly
120.53243°
Mean anomaly
120.5056°
Eccentric anomaly
120.51902°
Mean motion
0.25067 °/min
Orbital period
1,436.16 mins
BSTAR
0
Loading maneuver chart data...
Computing Atmospheric mass density...
Loading historical data...
Loading historical data...
Loading historical data...
Loading historical data...
Loading historical data...
Loading historical data...
Loading historical data...
Other satellites on launch #59 in the year 2018 (2018-07-22 UTC)

Documentation

Showing up to 5 results
|